Regional Weather Roundup
Issued by NWS Sterling, VA

Home | Current Version | Previous Version | Text Only | Print | Product List | Glossary Off
Versions: 1 2 3 4 5 6 7 8 9 10 11 12 13 14 15 16 17 18 19 20 21 22 23 24 25 26 27 28 29 30 31 32 33 34 35 36 37 38 39 40 41 42 43 44 45 46 47 48 49 50

000
ASUS41 KLWX 052310
RWRLWX

REGIONAL WEATHER ROUNDUP
NATIONAL WEATHER SERVICE BALTIMORE MD/WASHINGTON DC
700 PM EDT SUN JUL 05 2015

Note: "FAIR" indicates few or no clouds below 12,000 feet
with no significant weather and/or obstructions to visibility.
 TC=TEMPERATURE CELSIUS

 * =Non NWS site. Station does not report precipitation (e.g. rain,
    snow, etc.), thunder, or fog.

DCZ001-MDZ009-015-VAZ040>042-051-053>054-060000-
WASHINGTON METRO

CITY           SKY/WX    TMP DP  RH WIND       PRES   REMARKS
WASHINGTON NAT CLOUDY    83  70  64 E6        30.10S
DULLES         CLOUDY    80  69  69 S3        30.10S
ANDREWS AFB    CLOUDY    78  74  88 E8        30.10R
FT BELVOIR     CLOUDY    80  72  75 SE5       30.10R
QUANTICO       CLOUDY    81  71  71 S5        30.10S
COLLEGE PARK*  CLOUDY    81  70  69 E3        30.09S
LEESBURG*      CLOUDY    81  73  78 SW13      30.11S
MANASSAS*      SUNNY     81  72  74 CALM      30.10S
GAITHERSBURG*  PTSUNNY   79  70  73 SE3       30.14S

$$

MDZ006>007-011-014-060000-
BALTIMORE METRO

CITY           SKY/WX    TMP DP  RH WIND       PRES   REMARKS
BWI AIRPORT    CLOUDY    79  67  66 S6        30.10R
MD SCIENCE CTR   N/A     81  64  56 MISG      30.11S
MARTIN STATE   MOSUNNY   79  72  78 MISG      30.12F
ANNAPOLIS      CLOUDY    78  68  71 SE7       30.10S
FORT MEADE*    CLOUDY    77  68  73 SE5       30.12S

$$

MDZ012-015-019>023-060000-
MARYLAND EASTERN SHORE

CITY           SKY/WX    TMP DP  RH WIND       PRES   REMARKS
OCEAN CITY     MOSUNNY   76  70  82 E6        30.12S
SALISBURY      SUNNY     78  71  79 SE8       30.11S
BAY BRIDGE AP*   N/A     77  68  73 CALM      30.11R
CAMBRIDGE*     PTSUNNY   81  70  69 N3        30.10S

$$

MDZ017>025-060000-
SOUTHERN MARYLAND

CITY           SKY/WX    TMP DP  RH WIND       PRES   REMARKS
PATUXENT RIVER PTSUNNY   79  70  74 S5        30.09F
ST INIGOES     NOT AVBL
LEONARDTOWN*   PTSUNNY   79  68  69 SE3       30.11S

$$

MDZ003>005-060000-
NORTH CENTRAL MARYLAND

CITY           SKY/WX    TMP DP  RH WIND       PRES   REMARKS
FREDERICK*     PTSUNNY   82  73  74 SW5       30.12
HAGERSTOWN APT PTSUNNY   81  65  58 SE5       30.11S
WESTMINSTER*   PTSUNNY   81  72  74 E5        30.13S

$$

MDZ501>502-060000-
WESTERN MARYLAND

CITY           SKY/WX    TMP DP  RH WIND       PRES   REMARKS
OAKLAND*       CLOUDY    68 N/A N/A E12       30.18F
CUMBERLAND*    CLOUDY    73  68  83 CALM      30.14S

$$

VAZ025>031-060000-
SHENANDOAH VALLEY

CITY           SKY/WX    TMP DP  RH WIND       PRES   REMARKS
WINCHESTER*    PTSUNNY   81  68  65 S6        30.11S
FRONT ROYAL*   FAIR      77  70  78 CALM      30.09S
LURAY*         FAIR      81  68  65 S3        30.10S
NEW MARKET*    FAIR      78  68  70 S3        30.08S
STAUNTON*      PTSUNNY   79  69  70 SE3       30.13S
WAYNESBORO*    CLOUDY    73  68  83 E9        30.12F

$$

WVZ021-048>050-054>055-060000-
EASTERN WEST VIRGINIA PANHANDLE

CITY           SKY/WX    TMP DP  RH WIND       PRES   REMARKS
MARTINSBURG    PTSUNNY   79  69  71 VRB3      30.11S
PETERSBURG*    CLOUDY    79  67  66 CALM      30.10S

$$

VAZ036>039-050-060000-
CENTRAL FOOTHILLS

CITY           SKY/WX    TMP DP  RH WIND       PRES   REMARKS
CHARLOTTESVILL PTSUNNY   79  69  71 E3        30.10S
CULPEPER*      PTSUNNY   79  71  76 CALM      30.10S
ORANGE*        PTSUNNY   81  72  74 CALM      30.11S
GORDONSVILLE*  CLOUDY    79  72  78 CALM      30.09S
WARRENTON*     FAIR      81  73  78 CALM      30.09S

$$

VAZ055>057-060000-
NORTH AND CENTRAL PIEDMONT

CITY           SKY/WX    TMP DP  RH WIND       PRES   REMARKS
FREDERICKSBRG* CLOUDY    83  73  72 E8        30.08R
STAFFORD*      CLOUDY    79  71  75 E6        30.13S

$$

NCZ024-NYZ072-PAZ021-071-VAZ022-071-060000-
OTHER REGIONAL OBSERVATIONS

CITY           SKY/WX    TMP DP  RH WIND       PRES   REMARKS
NEW YORK CITY  SUNNY     80  61  52 S3        30.13R
PHILADELPHIA   MOSUNNY   83  64  52 SW8       30.11S
PITTSBURGH     CLOUDY    80  59  48 NE10      30.09S
ROANOKE        LGT RAIN  74  72  93 S3        30.11S
RICHMOND       CLOUDY    80  71  74 SE9       30.10R
RALEIGH        PTSUNNY   81  68  64 SE3       30.06S

$$

ANZ530>537-060000-
MARINE OBSERVATIONS

STATION/POSITION TIME  TEMP    WIND        PRES
                       AIR SEA DIR/SP/G
                 (UTC) (F)     (DEG/KT/KT) (MB)
THOMAS PT LIGHT  NOT AVBL
BALT KEY BRIDGE  2200   78     110/  7/  8 1019.3F
COVE POINT       2200   78     180/  7/  8 1019.9F
LEWISETTA        2200   80 81  120/  9/ 10 1018.6F
SOLOMONS ISLAND  2200      82                N/A
PINEY POINT      2200          140/ 10/ 11   N/A

$$




USA.gov is the U.S. government's official web portal to all federal, state and local government web resources and services.